Year,Month,Day,Hour,Minute,Value (Times are PST for temperature in C)
2014,02,10,00,00,2.10
2014,02,10,00,01,2.10
2014,02,10,00,02,2.10
2014,02,10,00,03,2.10
2014,02,10,00,04,2.10
2014,02,10,00,05,2.10
2014,02,10,00,06,2.10
2014,02,10,00,07,2.10
2014,02,10,00,08,2.10
2014,02,10,00,09,2.20
2014,02,10,00,10,2.20
2014,02,10,00,11,2.20
2014,02,10,00,12,2.20
2014,02,10,00,13,2.20
2014,02,10,00,14,2.20
2014,02,10,00,15,2.20
2014,02,10,00,16,2.20
2014,02,10,00,17,2.20
2014,02,10,00,18,2.20
2014,02,10,00,19,2.20
2014,02,10,00,20,2.20
2014,02,10,00,21,2.20
2014,02,10,00,22,2.20
2014,02,10,00,23,2.20
2014,02,10,00,24,2.20
2014,02,10,00,25,2.20
2014,02,10,00,26,2.20
2014,02,10,00,27,2.20
2014,02,10,00,28,2.20
2014,02,10,00,29,2.20
2014,02,10,00,30,2.20
2014,02,10,00,31,2.20
2014,02,10,00,32,2.20
2014,02,10,00,33,2.20
2014,02,10,00,34,2.20
2014,02,10,00,35,2.20
2014,02,10,00,36,2.20
2014,02,10,00,37,2.20
2014,02,10,00,38,2.20
2014,02,10,00,39,2.20
2014,02,10,00,40,2.20
2014,02,10,00,41,2.20
2014,02,10,00,42,2.20
2014,02,10,00,43,2.20
2014,02,10,00,44,2.20
2014,02,10,00,45,2.20
2014,02,10,00,46,2.20
2014,02,10,00,47,2.20
2014,02,10,00,48,2.20
2014,02,10,00,49,2.20
2014,02,10,00,50,2.20
2014,02,10,00,51,2.30
2014,02,10,00,52,2.20
2014,02,10,00,53,2.30
2014,02,10,00,54,2.30
2014,02,10,00,55,2.30
2014,02,10,00,56,2.30
2014,02,10,00,57,2.30
2014,02,10,00,58,2.30
2014,02,10,00,59,2.20
2014,02,10,01,00,2.20
2014,02,10,01,01,2.20
2014,02,10,01,02,2.20
2014,02,10,01,03,2.20
2014,02,10,01,04,2.20
2014,02,10,01,05,2.20
2014,02,10,01,06,2.20
2014,02,10,01,07,2.20
2014,02,10,01,08,2.20
2014,02,10,01,09,2.20
2014,02,10,01,10,2.20
2014,02,10,01,11,2.20
2014,02,10,01,12,2.20
2014,02,10,01,13,2.20
2014,02,10,01,14,2.20
2014,02,10,01,15,2.20
2014,02,10,01,16,2.20
2014,02,10,01,17,2.20
2014,02,10,01,18,2.30
2014,02,10,01,19,2.30
2014,02,10,01,20,2.30
2014,02,10,01,21,2.30
2014,02,10,01,22,2.30
2014,02,10,01,23,2.30
2014,02,10,01,24,2.30
2014,02,10,01,25,2.30
2014,02,10,01,26,2.30
2014,02,10,01,27,2.30
2014,02,10,01,28,2.30
2014,02,10,01,29,2.30
2014,02,10,01,30,2.30
2014,02,10,01,31,2.30
2014,02,10,01,32,2.30
2014,02,10,01,33,2.30
2014,02,10,01,34,2.30
2014,02,10,01,35,2.30
2014,02,10,01,36,2.30
2014,02,10,01,37,2.30
2014,02,10,01,38,2.30
2014,02,10,01,39,2.30
2014,02,10,01,40,2.30
2014,02,10,01,41,2.30
2014,02,10,01,42,2.30
2014,02,10,01,43,2.30
2014,02,10,01,44,2.30
2014,02,10,01,45,2.30
2014,02,10,01,46,2.30
2014,02,10,01,47,2.30
2014,02,10,01,48,2.30
2014,02,10,01,49,2.30
2014,02,10,01,50,2.30
2014,02,10,01,51,2.40
2014,02,10,01,52,2.40
2014,02,10,01,53,2.40
2014,02,10,01,54,2.40
2014,02,10,01,55,2.40
2014,02,10,01,56,2.40
2014,02,10,01,57,2.40
2014,02,10,01,58,2.40
2014,02,10,01,59,2.40
2014,02,10,02,00,2.40
2014,02,10,02,01,2.40
2014,02,10,02,02,2.30
2014,02,10,02,03,2.30
2014,02,10,02,04,2.30
2014,02,10,02,05,2.30
2014,02,10,02,06,2.30
2014,02,10,02,07,2.30
2014,02,10,02,08,2.30
2014,02,10,02,09,2.30
2014,02,10,02,10,2.30
2014,02,10,02,11,2.30
2014,02,10,02,12,2.30
2014,02,10,02,13,2.30
2014,02,10,02,14,2.30
2014,02,10,02,15,2.30
2014,02,10,02,16,2.30
2014,02,10,02,17,2.30
2014,02,10,02,18,2.30
2014,02,10,02,19,2.30
2014,02,10,02,20,2.30
2014,02,10,02,21,2.30
2014,02,10,02,22,2.30
2014,02,10,02,23,2.30
2014,02,10,02,24,2.30
2014,02,10,02,25,2.30
2014,02,10,02,26,2.30
2014,02,10,02,27,2.30
2014,02,10,02,28,2.30
2014,02,10,02,29,2.30
2014,02,10,02,30,2.30
2014,02,10,02,31,2.30
2014,02,10,02,32,2.40
2014,02,10,02,33,2.40
2014,02,10,02,34,2.40
2014,02,10,02,35,2.40
2014,02,10,02,36,2.40
2014,02,10,02,37,2.40
2014,02,10,02,38,2.40
2014,02,10,02,39,2.40
2014,02,10,02,40,2.40
2014,02,10,02,41,2.40
2014,02,10,02,42,2.40
2014,02,10,02,43,2.40
2014,02,10,02,44,2.40
2014,02,10,02,45,2.40
2014,02,10,02,46,2.50
2014,02,10,02,47,2.50
2014,02,10,02,48,2.50
2014,02,10,02,49,2.50
2014,02,10,02,50,2.50
2014,02,10,02,51,2.50
2014,02,10,02,52,2.50
2014,02,10,02,53,2.50
2014,02,10,02,54,2.50
2014,02,10,02,55,2.50
2014,02,10,02,56,2.50
2014,02,10,02,57,2.50
2014,02,10,02,58,2.50
2014,02,10,02,59,2.50
2014,02,10,03,00,2.50
2014,02,10,03,01,2.50
2014,02,10,03,02,2.50
2014,02,10,03,03,2.50
2014,02,10,03,04,2.50
2014,02,10,03,05,2.50
2014,02,10,03,06,2.60
2014,02,10,03,07,2.60
2014,02,10,03,08,2.60
2014,02,10,03,09,2.60
2014,02,10,03,10,2.60
2014,02,10,03,11,2.60
2014,02,10,03,12,2.60
2014,02,10,03,13,2.60
2014,02,10,03,14,2.60
2014,02,10,03,15,2.60
2014,02,10,03,16,2.60
2014,02,10,03,17,2.60
2014,02,10,03,18,2.60
2014,02,10,03,19,2.60
2014,02,10,03,20,2.60
2014,02,10,03,21,2.60
2014,02,10,03,22,2.60
2014,02,10,03,23,2.60
2014,02,10,03,24,2.60
2014,02,10,03,25,2.60
2014,02,10,03,26,2.60
2014,02,10,03,27,2.60
2014,02,10,03,28,2.60
2014,02,10,03,29,2.60
2014,02,10,03,30,2.60
2014,02,10,03,31,2.60
2014,02,10,03,32,2.60
2014,02,10,03,33,2.60
2014,02,10,03,34,2.60
2014,02,10,03,35,2.60
2014,02,10,03,36,2.60
2014,02,10,03,37,2.60
2014,02,10,03,38,2.70
2014,02,10,03,39,2.70
2014,02,10,03,40,2.70
2014,02,10,03,41,2.70
2014,02,10,03,42,2.70
2014,02,10,03,43,2.70
2014,02,10,03,44,2.70
2014,02,10,03,45,2.70
2014,02,10,03,46,2.70
2014,02,10,03,47,2.70
2014,02,10,03,48,2.70
2014,02,10,03,49,2.70
2014,02,10,03,50,2.70
2014,02,10,03,51,2.70
2014,02,10,03,52,2.70
2014,02,10,03,53,2.70
2014,02,10,03,54,2.70
2014,02,10,03,55,2.70
2014,02,10,03,56,2.70
2014,02,10,03,57,2.70
2014,02,10,03,58,2.70
2014,02,10,03,59,2.70
2014,02,10,04,00,2.70
2014,02,10,04,01,2.80
2014,02,10,04,02,2.80
2014,02,10,04,03,2.80
2014,02,10,04,04,2.80
2014,02,10,04,05,2.80
2014,02,10,04,06,2.80
2014,02,10,04,07,2.80
2014,02,10,04,08,2.80
2014,02,10,04,09,2.80
2014,02,10,04,10,2.80
2014,02,10,04,11,2.80
2014,02,10,04,12,2.80
2014,02,10,04,13,2.80
2014,02,10,04,14,2.80
2014,02,10,04,15,2.80
2014,02,10,04,16,2.80
2014,02,10,04,17,2.80
2014,02,10,04,18,2.70
2014,02,10,04,19,2.70
2014,02,10,04,20,2.70
2014,02,10,04,21,2.70
2014,02,10,04,22,2.70
2014,02,10,04,23,2.70
2014,02,10,04,24,2.70
2014,02,10,04,25,2.70
2014,02,10,04,26,2.70
2014,02,10,04,27,2.70
2014,02,10,04,28,2.70
2014,02,10,04,29,2.80
2014,02,10,04,30,2.80
2014,02,10,04,31,2.80
2014,02,10,04,32,2.80
2014,02,10,04,33,2.80
2014,02,10,04,34,2.80
2014,02,10,04,35,2.80
2014,02,10,04,36,2.80
2014,02,10,04,37,2.80
2014,02,10,04,38,2.80
2014,02,10,04,39,2.80
2014,02,10,04,40,2.80
2014,02,10,04,41,2.80
2014,02,10,04,42,2.80
2014,02,10,04,43,2.80
2014,02,10,04,44,2.80
2014,02,10,04,45,2.80
2014,02,10,04,46,2.80
2014,02,10,04,47,2.80
2014,02,10,04,48,2.80
2014,02,10,04,49,2.80
2014,02,10,04,50,2.80
2014,02,10,04,51,2.80
2014,02,10,04,52,2.80
2014,02,10,04,53,2.80
2014,02,10,04,54,2.80
2014,02,10,04,55,2.80
2014,02,10,04,56,2.80
2014,02,10,04,57,2.80
2014,02,10,04,58,2.80
2014,02,10,04,59,2.80
2014,02,10,05,00,2.80
2014,02,10,05,01,2.80
2014,02,10,05,02,2.80
2014,02,10,05,03,2.80
2014,02,10,05,04,2.80
2014,02,10,05,05,2.80
2014,02,10,05,06,2.80
2014,02,10,05,07,2.80
2014,02,10,05,08,2.80
2014,02,10,05,09,2.80
2014,02,10,05,10,2.80
2014,02,10,05,11,2.80
2014,02,10,05,12,2.80
2014,02,10,05,13,2.80
2014,02,10,05,14,2.80
2014,02,10,05,15,2.80
2014,02,10,05,16,2.80
2014,02,10,05,17,2.80
2014,02,10,05,18,2.80
2014,02,10,05,19,2.80
2014,02,10,05,20,2.80
2014,02,10,05,21,2.70
2014,02,10,05,22,2.80
2014,02,10,05,23,2.80
2014,02,10,05,24,2.80
2014,02,10,05,25,2.80
2014,02,10,05,26,2.80
2014,02,10,05,27,2.80
2014,02,10,05,28,2.80
2014,02,10,05,29,2.80
2014,02,10,05,30,2.80
2014,02,10,05,31,2.80
2014,02,10,05,32,2.80
2014,02,10,05,33,2.80
2014,02,10,05,34,2.80
2014,02,10,05,35,2.80
2014,02,10,05,36,2.80
2014,02,10,05,37,2.80
2014,02,10,05,38,2.80
2014,02,10,05,39,2.80
2014,02,10,05,40,2.80
2014,02,10,05,41,2.80
2014,02,10,05,42,2.80
2014,02,10,05,43,2.80
2014,02,10,05,44,2.90
2014,02,10,05,45,2.90
2014,02,10,05,46,2.90
2014,02,10,05,47,2.90
2014,02,10,05,48,2.90
2014,02,10,05,49,2.90
2014,02,10,05,50,2.90
2014,02,10,05,51,2.90
2014,02,10,05,52,2.80
2014,02,10,05,53,2.80
2014,02,10,05,54,2.80
2014,02,10,05,55,2.90
2014,02,10,05,56,2.90
2014,02,10,05,57,2.90
2014,02,10,05,58,2.90
2014,02,10,05,59,2.90
2014,02,10,06,00,2.90
2014,02,10,06,01,2.90
2014,02,10,06,02,2.90
2014,02,10,06,03,2.90
2014,02,10,06,04,2.90
2014,02,10,06,05,2.90
2014,02,10,06,06,2.90
2014,02,10,06,07,2.90
2014,02,10,06,08,2.90
2014,02,10,06,09,2.90
2014,02,10,06,10,2.90
2014,02,10,06,11,2.90
2014,02,10,06,12,2.90
2014,02,10,06,13,2.90
2014,02,10,06,14,2.90
2014,02,10,06,15,2.90
2014,02,10,06,16,2.90
2014,02,10,06,17,2.90
2014,02,10,06,18,2.90
2014,02,10,06,19,2.90
2014,02,10,06,20,2.90
2014,02,10,06,21,2.90
2014,02,10,06,22,2.90
2014,02,10,06,23,2.90
2014,02,10,06,24,3.00
2014,02,10,06,25,3.00
2014,02,10,06,26,3.00
2014,02,10,06,27,3.00
2014,02,10,06,28,3.00
2014,02,10,06,29,3.00
2014,02,10,06,30,3.00
2014,02,10,06,31,3.00
2014,02,10,06,32,3.00
2014,02,10,06,33,3.00
2014,02,10,06,34,3.00
2014,02,10,06,35,3.00
2014,02,10,06,36,3.10
2014,02,10,06,37,3.10
2014,02,10,06,38,3.20
2014,02,10,06,39,3.20
2014,02,10,06,40,3.20
2014,02,10,06,41,3.20
2014,02,10,06,42,3.30
2014,02,10,06,43,3.30
2014,02,10,06,44,3.30
2014,02,10,06,45,3.30
2014,02,10,06,46,3.30
2014,02,10,06,47,3.30
2014,02,10,06,48,3.30
2014,02,10,06,49,3.40
2014,02,10,06,50,3.40
2014,02,10,06,51,3.30
2014,02,10,06,52,3.30
2014,02,10,06,53,3.30
2014,02,10,06,54,3.30
2014,02,10,06,55,3.40
2014,02,10,06,56,3.50
2014,02,10,06,57,3.50
2014,02,10,06,58,3.60
2014,02,10,06,59,3.60
2014,02,10,07,00,3.60
2014,02,10,07,01,3.50
2014,02,10,07,02,3.50
2014,02,10,07,03,3.40
2014,02,10,07,04,3.40
2014,02,10,07,05,3.40
2014,02,10,07,06,3.40
2014,02,10,07,07,3.30
2014,02,10,07,08,3.40
2014,02,10,07,09,3.40
2014,02,10,07,10,3.40
2014,02,10,07,11,3.40
2014,02,10,07,12,3.40
2014,02,10,07,13,3.40
2014,02,10,07,14,3.40
2014,02,10,07,15,3.40
2014,02,10,07,16,3.40
2014,02,10,07,17,3.40
2014,02,10,07,18,3.40
2014,02,10,07,19,3.50
2014,02,10,07,20,3.60
2014,02,10,07,21,3.60
2014,02,10,07,22,3.70
2014,02,10,07,23,3.70
2014,02,10,07,24,3.80
2014,02,10,07,25,3.80
2014,02,10,07,26,3.80
2014,02,10,07,27,3.80
2014,02,10,07,28,3.80
2014,02,10,07,29,3.80
2014,02,10,07,30,3.80
2014,02,10,07,31,3.80
2014,02,10,07,32,3.80
2014,02,10,07,33,3.80
2014,02,10,07,34,3.80
2014,02,10,07,35,3.80
2014,02,10,07,36,3.80
2014,02,10,07,37,3.90
2014,02,10,07,38,3.90
2014,02,10,07,39,3.90
2014,02,10,07,40,4.00
2014,02,10,07,41,4.10
2014,02,10,07,42,4.10
2014,02,10,07,43,4.20
2014,02,10,07,44,4.20
2014,02,10,07,45,4.20
2014,02,10,07,46,4.20
2014,02,10,07,47,4.20
2014,02,10,07,48,4.20
2014,02,10,07,49,4.20
2014,02,10,07,50,4.20
2014,02,10,07,51,4.10
2014,02,10,07,52,4.10
2014,02,10,07,53,4.10
2014,02,10,07,54,4.10
2014,02,10,07,55,4.10
2014,02,10,07,56,4.10
2014,02,10,07,57,4.10
2014,02,10,07,58,4.10
2014,02,10,07,59,4.20
2014,02,10,08,00,4.20
2014,02,10,08,01,4.20
2014,02,10,08,02,4.30
2014,02,10,08,03,4.50
2014,02,10,08,04,4.80
2014,02,10,08,05,5.00
2014,02,10,08,06,5.10
2014,02,10,08,07,5.10
2014,02,10,08,08,5.10
2014,02,10,08,09,5.00
2014,02,10,08,10,5.00
2014,02,10,08,11,4.90
2014,02,10,08,12,4.90
2014,02,10,08,13,4.80
2014,02,10,08,14,4.80
2014,02,10,08,15,4.70
2014,02,10,08,16,4.70
2014,02,10,08,17,4.70
2014,02,10,08,18,4.70
2014,02,10,08,19,4.60
2014,02,10,08,20,4.60
2014,02,10,08,21,4.60
2014,02,10,08,22,4.60
2014,02,10,08,23,4.60
2014,02,10,08,24,4.60
2014,02,10,08,25,4.60
2014,02,10,08,26,4.60
2014,02,10,08,27,4.60
2014,02,10,08,28,4.60
2014,02,10,08,29,4.50
2014,02,10,08,30,4.50
2014,02,10,08,31,4.50
2014,02,10,08,32,4.50
2014,02,10,08,33,4.50
2014,02,10,08,34,4.50
2014,02,10,08,35,4.50
2014,02,10,08,36,4.60
2014,02,10,08,37,4.60
2014,02,10,08,38,4.60
2014,02,10,08,39,4.60
2014,02,10,08,40,4.60
2014,02,10,08,41,4.60
2014,02,10,08,42,4.60
2014,02,10,08,43,4.60
2014,02,10,08,44,4.60
2014,02,10,08,45,4.60
2014,02,10,08,46,4.60
2014,02,10,08,47,4.60
2014,02,10,08,48,4.60
2014,02,10,08,49,4.60
2014,02,10,08,50,4.60
2014,02,10,08,51,4.60
2014,02,10,08,52,4.60
2014,02,10,08,53,4.60
2014,02,10,08,54,4.60
2014,02,10,08,55,4.60
2014,02,10,08,56,4.60
2014,02,10,08,57,4.60
2014,02,10,08,58,4.60
2014,02,10,08,59,4.60
2014,02,10,09,00,4.60
2014,02,10,09,01,4.60
2014,02,10,09,02,4.60
2014,02,10,09,03,4.60
2014,02,10,09,04,4.60
2014,02,10,09,05,4.60
2014,02,10,09,06,4.60
2014,02,10,09,07,4.60
2014,02,10,09,08,4.60
2014,02,10,09,09,4.50
2014,02,10,09,10,4.50
2014,02,10,09,11,4.50
2014,02,10,09,12,4.50
2014,02,10,09,13,4.50
2014,02,10,09,14,4.50
2014,02,10,09,15,4.50
2014,02,10,09,16,4.50
2014,02,10,09,17,4.50
2014,02,10,09,18,4.60
2014,02,10,09,19,4.60
2014,02,10,09,20,4.60
2014,02,10,09,21,4.60
2014,02,10,09,22,4.70
2014,02,10,09,23,4.70
2014,02,10,09,24,4.70
2014,02,10,09,25,4.70
2014,02,10,09,26,4.70
2014,02,10,09,27,4.80
2014,02,10,09,28,4.80
2014,02,10,09,29,4.80
2014,02,10,09,30,4.80
2014,02,10,09,31,4.80
2014,02,10,09,32,4.80
2014,02,10,09,33,4.80
2014,02,10,09,34,5.00
2014,02,10,09,35,5.10
2014,02,10,09,36,5.20
2014,02,10,09,37,5.30
2014,02,10,09,38,5.30
2014,02,10,09,39,5.20
2014,02,10,09,40,5.20
2014,02,10,09,41,5.20
2014,02,10,09,42,5.20
2014,02,10,09,43,5.20
2014,02,10,09,44,5.20
2014,02,10,09,45,5.20
2014,02,10,09,46,5.20
2014,02,10,09,47,5.20
2014,02,10,09,48,5.20
2014,02,10,09,49,5.20
2014,02,10,09,50,5.30
2014,02,10,09,51,5.30
2014,02,10,09,52,5.30
2014,02,10,09,53,5.30
2014,02,10,09,54,5.30
2014,02,10,09,55,5.30
2014,02,10,09,56,5.30
2014,02,10,09,57,5.30
2014,02,10,09,58,5.30
2014,02,10,09,59,5.30
2014,02,10,10,00,5.30
2014,02,10,10,01,5.30
2014,02,10,10,02,5.30
2014,02,10,10,03,5.30
2014,02,10,10,04,5.40
2014,02,10,10,05,5.40
2014,02,10,10,06,5.50
2014,02,10,10,07,5.60
2014,02,10,10,08,5.60
2014,02,10,10,09,5.70
2014,02,10,10,10,5.70
2014,02,10,10,11,5.70
2014,02,10,10,12,5.70
2014,02,10,10,13,5.70
2014,02,10,10,14,5.70
2014,02,10,10,15,5.70
2014,02,10,10,16,5.70
2014,02,10,10,17,5.70
2014,02,10,10,18,5.70
2014,02,10,10,19,5.70
2014,02,10,10,20,5.70
2014,02,10,10,21,5.60
2014,02,10,10,22,5.60
2014,02,10,10,23,5.50
2014,02,10,10,24,5.40
2014,02,10,10,25,5.40
2014,02,10,10,26,5.40
2014,02,10,10,27,5.40
2014,02,10,10,28,5.40
2014,02,10,10,29,5.50
2014,02,10,10,30,5.50
2014,02,10,10,31,5.60
2014,02,10,10,32,5.60
2014,02,10,10,33,5.60
2014,02,10,10,34,5.70
2014,02,10,10,35,5.70
2014,02,10,10,36,5.70
2014,02,10,10,37,5.70
2014,02,10,10,38,5.70
2014,02,10,10,39,5.70
2014,02,10,10,40,5.70
2014,02,10,10,41,5.70
2014,02,10,10,42,5.70
2014,02,10,10,43,5.70
2014,02,10,10,44,5.70
2014,02,10,10,45,5.70
2014,02,10,10,46,5.70
2014,02,10,10,47,5.70
2014,02,10,10,48,5.70
2014,02,10,10,49,5.80
2014,02,10,10,50,5.90
2014,02,10,10,51,5.90
2014,02,10,10,52,6.00
2014,02,10,10,53,6.00
2014,02,10,10,54,6.10
2014,02,10,10,55,6.10
2014,02,10,10,56,6.10
2014,02,10,10,57,6.10
2014,02,10,10,58,6.10
2014,02,10,10,59,6.10
2014,02,10,11,00,6.10
2014,02,10,11,01,6.10
2014,02,10,11,02,6.20
2014,02,10,11,03,6.20
2014,02,10,11,04,6.30
2014,02,10,11,05,6.30
2014,02,10,11,06,6.40
2014,02,10,11,07,6.40
2014,02,10,11,08,6.50
2014,02,10,11,09,6.60
2014,02,10,11,10,6.60
2014,02,10,11,11,6.60
2014,02,10,11,12,6.60
2014,02,10,11,13,6.70
2014,02,10,11,14,6.70
2014,02,10,11,15,6.70
2014,02,10,11,16,6.80
2014,02,10,11,17,6.80
2014,02,10,11,18,6.80
2014,02,10,11,19,6.90
2014,02,10,11,20,6.90
2014,02,10,11,21,7.00
2014,02,10,11,22,7.10
2014,02,10,11,23,7.10
2014,02,10,11,24,7.20
2014,02,10,11,25,7.20
2014,02,10,11,26,7.30
2014,02,10,11,27,7.30
2014,02,10,11,28,7.30
2014,02,10,11,29,7.40
2014,02,10,11,30,7.40
2014,02,10,11,31,7.40
2014,02,10,11,32,7.40
2014,02,10,11,33,7.40
2014,02,10,11,34,7.50
2014,02,10,11,35,7.50
2014,02,10,11,36,7.60
2014,02,10,11,37,7.60
2014,02,10,11,38,7.60
2014,02,10,11,39,7.60
2014,02,10,11,40,7.60
2014,02,10,11,41,7.70
2014,02,10,11,42,7.70
2014,02,10,11,43,7.70
2014,02,10,11,44,7.70
2014,02,10,11,45,7.70
2014,02,10,11,46,7.70
2014,02,10,11,47,7.70
2014,02,10,11,48,7.80
2014,02,10,11,49,7.80
2014,02,10,11,50,7.80
2014,02,10,11,51,7.80
2014,02,10,11,52,7.80
2014,02,10,11,53,7.80
2014,02,10,11,54,7.80
2014,02,10,11,55,7.80
2014,02,10,11,56,7.80
2014,02,10,11,57,7.80
2014,02,10,11,58,7.80
2014,02,10,11,59,7.80
2014,02,10,12,00,7.80
2014,02,10,12,01,7.80
2014,02,10,12,02,7.80
2014,02,10,12,03,7.80
2014,02,10,12,04,7.80
2014,02,10,12,05,7.80
2014,02,10,12,06,7.80
2014,02,10,12,07,7.80
2014,02,10,12,08,7.80
2014,02,10,12,09,7.80
2014,02,10,12,10,7.80
2014,02,10,12,11,7.80
2014,02,10,12,12,7.80
2014,02,10,12,13,7.80
2014,02,10,12,14,7.80
2014,02,10,12,15,7.80
2014,02,10,12,16,7.80
2014,02,10,12,17,7.80
2014,02,10,12,18,7.80
2014,02,10,12,19,7.80
2014,02,10,12,20,7.90
2014,02,10,12,21,7.90
2014,02,10,12,22,7.90
2014,02,10,12,23,7.90
2014,02,10,12,24,8.00
2014,02,10,12,25,8.00
2014,02,10,12,26,8.00
2014,02,10,12,27,8.00
2014,02,10,12,28,8.10
2014,02,10,12,29,8.10
2014,02,10,12,30,8.10
2014,02,10,12,31,8.10
2014,02,10,12,32,8.10
2014,02,10,12,33,8.10
2014,02,10,12,34,8.10
2014,02,10,12,35,8.10
2014,02,10,12,36,8.10
2014,02,10,12,37,8.10
2014,02,10,12,38,8.10
2014,02,10,12,39,8.10
2014,02,10,12,40,8.10
2014,02,10,12,41,8.10
2014,02,10,12,42,8.10
2014,02,10,12,43,8.10
2014,02,10,12,44,8.10
2014,02,10,12,45,8.10
2014,02,10,12,46,8.10
2014,02,10,12,47,8.10
2014,02,10,12,48,8.10
2014,02,10,12,49,8.10
2014,02,10,12,50,8.10
2014,02,10,12,51,8.10
2014,02,10,12,52,8.10
2014,02,10,12,53,8.10
2014,02,10,12,54,8.20
2014,02,10,12,55,8.20
2014,02,10,12,56,8.10
2014,02,10,12,57,8.10
2014,02,10,12,58,8.10
2014,02,10,12,59,8.10
2014,02,10,13,00,8.20
2014,02,10,13,01,8.20
2014,02,10,13,02,8.20
2014,02,10,13,03,8.20
2014,02,10,13,04,8.20
2014,02,10,13,05,8.20
2014,02,10,13,06,8.20
2014,02,10,13,07,8.20
2014,02,10,13,08,8.20
2014,02,10,13,09,8.30
2014,02,10,13,10,8.30
2014,02,10,13,11,8.30
2014,02,10,13,12,8.30
2014,02,10,13,13,8.30
2014,02,10,13,14,8.30
2014,02,10,13,15,8.40
2014,02,10,13,16,8.40
2014,02,10,13,17,8.40
2014,02,10,13,18,8.40
2014,02,10,13,19,8.40
2014,02,10,13,20,8.40
2014,02,10,13,21,8.40
2014,02,10,13,22,8.40
2014,02,10,13,23,8.40
2014,02,10,13,24,8.40
2014,02,10,13,25,8.50
2014,02,10,13,26,8.50
2014,02,10,13,27,8.50
2014,02,10,13,28,8.50
2014,02,10,13,29,8.50
2014,02,10,13,30,8.50
2014,02,10,13,31,8.50
2014,02,10,13,32,8.50
2014,02,10,13,33,8.60
2014,02,10,13,34,8.60
2014,02,10,13,35,8.70
2014,02,10,13,36,8.70
2014,02,10,13,37,8.70
2014,02,10,13,38,8.80
2014,02,10,13,39,8.80
2014,02,10,13,40,8.80
2014,02,10,13,41,8.80
2014,02,10,13,42,8.80
2014,02,10,13,43,8.80
2014,02,10,13,44,8.80
2014,02,10,13,45,8.80
2014,02,10,13,46,8.80
2014,02,10,13,47,8.80
2014,02,10,13,48,8.80
2014,02,10,13,49,8.80
2014,02,10,13,50,8.80
2014,02,10,13,51,8.80
2014,02,10,13,52,8.80
2014,02,10,13,53,8.80
2014,02,10,13,54,8.70
2014,02,10,13,55,8.70
2014,02,10,13,56,8.80
2014,02,10,13,57,8.80
2014,02,10,13,58,8.80
2014,02,10,13,59,8.90
2014,02,10,14,00,8.90
2014,02,10,14,01,8.90
2014,02,10,14,02,8.90
2014,02,10,14,03,8.90
2014,02,10,14,04,8.90
2014,02,10,14,05,8.90
2014,02,10,14,06,8.90
2014,02,10,14,07,8.90
2014,02,10,14,08,8.90
2014,02,10,14,09,8.80
2014,02,10,14,10,8.80
2014,02,10,14,11,8.80
2014,02,10,14,12,8.80
2014,02,10,14,13,8.80
2014,02,10,14,14,8.80
2014,02,10,14,15,8.80
2014,02,10,14,16,8.80
2014,02,10,14,17,8.80
2014,02,10,14,18,8.80
2014,02,10,14,19,8.80
2014,02,10,14,20,8.80
2014,02,10,14,21,8.80
2014,02,10,14,22,8.80
2014,02,10,14,23,8.80
2014,02,10,14,24,8.80
2014,02,10,14,25,8.70
2014,02,10,14,26,8.70
2014,02,10,14,27,8.70
2014,02,10,14,28,8.70
2014,02,10,14,29,8.70
2014,02,10,14,30,8.70
2014,02,10,14,31,8.70
2014,02,10,14,32,8.70
2014,02,10,14,33,8.70
2014,02,10,14,34,8.70
2014,02,10,14,35,8.70
2014,02,10,14,36,8.70
2014,02,10,14,37,8.70
2014,02,10,14,38,8.70
2014,02,10,14,39,8.70
2014,02,10,14,40,8.70
2014,02,10,14,41,8.80
2014,02,10,14,42,8.80
2014,02,10,14,43,8.80
2014,02,10,14,44,8.80
2014,02,10,14,45,8.80
2014,02,10,14,46,8.80
2014,02,10,14,47,8.80
2014,02,10,14,48,8.80
2014,02,10,14,49,8.80
2014,02,10,14,50,8.90
2014,02,10,14,51,8.80
2014,02,10,14,52,8.90
2014,02,10,14,53,8.80
2014,02,10,14,54,8.80
2014,02,10,14,55,8.80
2014,02,10,14,56,8.80
2014,02,10,14,57,8.80
2014,02,10,14,58,8.80
2014,02,10,14,59,8.80
2014,02,10,15,00,8.80
2014,02,10,15,01,8.80
2014,02,10,15,02,8.80
2014,02,10,15,03,8.80
2014,02,10,15,04,8.80
2014,02,10,15,05,8.80
2014,02,10,15,06,8.80
2014,02,10,15,07,8.80
2014,02,10,15,08,8.70
2014,02,10,15,09,8.70
2014,02,10,15,10,8.70
2014,02,10,15,11,8.80
2014,02,10,15,12,8.80
2014,02,10,15,13,8.80
2014,02,10,15,14,8.80
2014,02,10,15,15,8.80
2014,02,10,15,16,8.80
2014,02,10,15,17,8.80
2014,02,10,15,18,8.70
2014,02,10,15,19,8.70
2014,02,10,15,20,8.70
2014,02,10,15,21,8.70
2014,02,10,15,22,8.70
2014,02,10,15,23,8.70
2014,02,10,15,24,8.70
2014,02,10,15,25,8.70
2014,02,10,15,26,8.60
2014,02,10,15,27,8.60
2014,02,10,15,28,8.60
2014,02,10,15,29,8.60
2014,02,10,15,30,8.60
2014,02,10,15,31,8.60
2014,02,10,15,32,8.60
2014,02,10,15,33,8.60
2014,02,10,15,34,8.50
2014,02,10,15,35,8.50
2014,02,10,15,36,8.50
2014,02,10,15,37,8.40
2014,02,10,15,38,8.40
2014,02,10,15,39,8.40
2014,02,10,15,40,8.40
2014,02,10,15,41,8.30
2014,02,10,15,42,8.30
2014,02,10,15,43,8.30
2014,02,10,15,44,8.30
2014,02,10,15,45,8.30
2014,02,10,15,46,8.30
2014,02,10,15,47,8.20
2014,02,10,15,48,8.20
2014,02,10,15,49,8.20
2014,02,10,15,50,8.20
2014,02,10,15,51,8.20
2014,02,10,15,52,8.20
2014,02,10,15,53,8.20
2014,02,10,15,54,8.20
2014,02,10,15,55,8.20
2014,02,10,15,56,8.20
2014,02,10,15,57,8.20
2014,02,10,15,58,8.20
2014,02,10,15,59,8.20
2014,02,10,16,00,8.20
2014,02,10,16,01,8.20
2014,02,10,16,02,8.20
2014,02,10,16,03,8.20
2014,02,10,16,04,8.20
2014,02,10,16,05,8.20
2014,02,10,16,06,8.20
2014,02,10,16,07,8.20
2014,02,10,16,08,8.20
2014,02,10,16,09,8.10
2014,02,10,16,10,8.10
2014,02,10,16,11,8.10
2014,02,10,16,12,8.10
2014,02,10,16,13,8.10
2014,02,10,16,14,8.10
2014,02,10,16,15,8.10
2014,02,10,16,16,8.10
2014,02,10,16,17,8.10
2014,02,10,16,18,8.10
2014,02,10,16,19,8.00
2014,02,10,16,20,8.00
2014,02,10,16,21,8.00
2014,02,10,16,22,8.00
2014,02,10,16,23,8.00
2014,02,10,16,24,8.00
2014,02,10,16,25,8.00
2014,02,10,16,26,8.00
2014,02,10,16,27,8.00
2014,02,10,16,28,8.00
2014,02,10,16,29,8.00
2014,02,10,16,30,7.90
2014,02,10,16,31,7.90
2014,02,10,16,32,7.90
2014,02,10,16,33,7.90
2014,02,10,16,34,7.90
2014,02,10,16,35,7.90
2014,02,10,16,36,7.90
2014,02,10,16,37,7.90
2014,02,10,16,38,7.80
2014,02,10,16,39,7.80
2014,02,10,16,40,7.80
2014,02,10,16,41,7.80
2014,02,10,16,42,7.80
2014,02,10,16,43,7.80
2014,02,10,16,44,7.80
2014,02,10,16,45,7.80
2014,02,10,16,46,7.80
2014,02,10,16,47,7.80
2014,02,10,16,48,7.80
2014,02,10,16,49,7.70
2014,02,10,16,50,7.70
2014,02,10,16,51,7.70
2014,02,10,16,52,7.60
2014,02,10,16,53,7.60
2014,02,10,16,54,7.60
2014,02,10,16,55,7.60
2014,02,10,16,56,7.50
2014,02,10,16,57,7.50
2014,02,10,16,58,7.40
2014,02,10,16,59,7.40
2014,02,10,17,00,7.40
2014,02,10,17,01,7.40
2014,02,10,17,02,7.40
2014,02,10,17,03,7.40
2014,02,10,17,04,7.40
2014,02,10,17,05,7.40
2014,02,10,17,06,7.40
2014,02,10,17,07,7.40
2014,02,10,17,08,7.40
2014,02,10,17,09,7.40
2014,02,10,17,10,7.40
2014,02,10,17,11,7.40
2014,02,10,17,12,7.40
2014,02,10,17,13,7.40
2014,02,10,17,14,7.40
2014,02,10,17,15,7.40
2014,02,10,17,16,7.40
2014,02,10,17,17,7.40
2014,02,10,17,18,7.40
2014,02,10,17,19,7.50
2014,02,10,17,20,7.50
2014,02,10,17,21,7.50
2014,02,10,17,22,7.50
2014,02,10,17,23,7.50
2014,02,10,17,24,7.50
2014,02,10,17,25,7.50
2014,02,10,17,26,7.60
2014,02,10,17,27,7.60
2014,02,10,17,28,7.60
2014,02,10,17,29,7.60
2014,02,10,17,30,7.60
2014,02,10,17,31,7.60
2014,02,10,17,32,7.60
2014,02,10,17,33,7.60
2014,02,10,17,34,7.60
2014,02,10,17,35,7.60
2014,02,10,17,36,7.60
2014,02,10,17,37,7.60
2014,02,10,17,38,7.60
2014,02,10,17,39,7.70
2014,02,10,17,40,7.60
2014,02,10,17,41,7.60
2014,02,10,17,42,7.70
2014,02,10,17,43,7.70
2014,02,10,17,44,7.70
2014,02,10,17,45,7.70
2014,02,10,17,46,7.70
2014,02,10,17,47,7.70
2014,02,10,17,48,7.70
2014,02,10,17,49,7.70
2014,02,10,17,50,7.70
2014,02,10,17,51,7.70
2014,02,10,17,52,7.70
2014,02,10,17,53,7.70
2014,02,10,17,54,7.70
2014,02,10,17,55,7.70
2014,02,10,17,56,7.70
2014,02,10,17,57,7.70
2014,02,10,17,58,7.70
2014,02,10,17,59,7.70
2014,02,10,18,00,7.70
2014,02,10,18,01,7.70
2014,02,10,18,02,7.70
2014,02,10,18,03,7.70
2014,02,10,18,04,7.70
2014,02,10,18,05,7.70
2014,02,10,18,06,7.70